,,PA_Meas_PMT16A,,PR_Meas_QMR101_102,,RH_Meas_QMH101,,SR_Meas_QMS101,,TA_Meas_QMH101,,GenWind,,GenWind,
time,status,PA,status,PR,status,RH,status,SR,status,TA,status,DirAvg,status,SpdAvg,
2011-03-05, 00:00:05,VALID,916.999,VALID,0,VALID,88.7899,VALID,0,VALID,20.1498,VALID,347,VALID,0.617188,
2011-03-05, 00:01:05,VALID,917.006,VALID,0,VALID,88.7518,VALID,0,VALID,20.1903,VALID,347,VALID,0.0277344,
2011-03-05, 00:02:05,VALID,917.034,VALID,0,VALID,89.4608,VALID,0,VALID,20.2489,VALID,347,VALID,0.409766,
2011-03-05, 00:03:05,VALID,917.016,VALID,0,VALID,90.6729,VALID,0,VALID,20.2684,VALID,347,VALID,0.282031,
2011-03-05, 00:04:05,VALID,916.985,VALID,0,VALID,91.2828,VALID,0,VALID,20.2879,VALID,347,VALID,0.090625,
2011-03-05, 00:05:05,VALID,917.025,VALID,0,VALID,91.885,VALID,0,VALID,20.2879,VALID,347,VALID,0.338672,
2011-03-05, 00:06:05,VALID,917.017,VALID,0,VALID,92.2281,VALID,0,VALID,20.2473,VALID,347,VALID,0.466797,
2011-03-05, 00:07:05,VALID,917.039,VALID,0,VALID,92.129,VALID,0,VALID,20.2278,VALID,347,VALID,0.0289063,
2011-03-05, 00:08:05,VALID,917.041,VALID,0,VALID,90.8406,VALID,0,VALID,20.1498,VALID,347,VALID,0.226563,
2011-03-05, 00:09:05,VALID,917.026,VALID,0,VALID,90.5357,VALID,0,VALID,20.1123,VALID,347,VALID,0.698438,
2011-03-05, 00:10:05,VALID,917.067,VALID,0,VALID,91.2447,VALID,0,VALID,20.0538,VALID,347,VALID,0.642578,
2011-03-05, 00:11:05,VALID,917.079,VALID,0,VALID,92.007,VALID,0,VALID,19.9758,VALID,347,VALID,0.424609,
2011-03-05, 00:12:05,VALID,917.131,VALID,0,VALID,92.4873,VALID,0,VALID,19.9158,VALID,347,VALID,0.294141,
2011-03-05, 00:13:05,VALID,917.128,VALID,0,VALID,92.4415,VALID,0,VALID,19.8963,VALID,347,VALID,0.190234,
2011-03-05, 00:14:05,VALID,917.111,VALID,0,VALID,92.3806,VALID,0,VALID,19.8978,VALID,347,VALID,0,
2011-03-05, 00:15:05,VALID,917.133,VALID,0,VALID,92.411,VALID,0,VALID,19.8978,VALID,347,VALID,0,
2011-03-05, 00:16:05,VALID,917.078,VALID,0,VALID,92.4263,VALID,0,VALID,19.8978,VALID,347,VALID,0,
2011-03-05, 00:17:05,VALID,917.063,VALID,0,VALID,92.3729,VALID,0,VALID,19.8978,VALID,347,VALID,0,
2011-03-05, 00:18:05,VALID,917.035,VALID,0,VALID,92.3729,VALID,0,VALID,19.9173,VALID,347,VALID,0,
2011-03-05, 00:19:05,VALID,917.029,VALID,0,VALID,92.4187,VALID,0,VALID,19.9158,VALID,347,VALID,0.0523437,
2011-03-05, 00:20:05,VALID,916.99,VALID,0,VALID,91.8927,VALID,0,VALID,19.8963,VALID,347,VALID,0,
2011-03-05, 00:21:05,VALID,916.981,VALID,0,VALID,91.4352,VALID,0,VALID,19.8573,VALID,347,VALID,0,
2011-03-05, 00:22:05,VALID,916.908,VALID,0,VALID,91.7326,VALID,0,VALID,19.8003,VALID,347,VALID,0.627344,
2011-03-05, 00:23:05,VALID,916.897,VALID,0,VALID,92.1671,VALID,0,VALID,19.7613,VALID,347,VALID,0.7625,
2011-03-05, 00:24:05,VALID,916.866,VALID,0,VALID,92.6397,VALID,0,VALID,19.6818,VALID,347,VALID,1.07617,
2011-03-05, 00:25:05,VALID,916.88,VALID,0,VALID,93.1886,VALID,0,VALID,19.6623,VALID,347,VALID,1.0332,
2011-03-05, 00:26:05,VALID,916.877,VALID,0,VALID,93.2725,VALID,0,VALID,19.6818,VALID,347,VALID,0.921875,
2011-03-05, 00:27:05,VALID,916.896,VALID,0,VALID,93.1124,VALID,0,VALID,19.7028,VALID,347,VALID,0.722266,
2011-03-05, 00:28:05,VALID,916.9,VALID,0,VALID,92.9142,VALID,0,VALID,19.7223,VALID,348,VALID,1.05898,
2011-03-05, 00:29:05,VALID,916.89,VALID,0,VALID,92.2891,VALID,0,VALID,19.7418,VALID,356,VALID,1.03906,
2011-03-05, 00:30:05,VALID,916.896,VALID,0,VALID,91.8774,VALID,0,VALID,19.7598,VALID,356,VALID,0.946484,
2011-03-05, 00:31:05,VALID,916.919,VALID,0,VALID,91.542,VALID,0,VALID,19.7808,VALID,356,VALID,0.932813,
2011-03-05, 00:32:05,VALID,916.88,VALID,0,VALID,91.4124,VALID,0,VALID,19.8003,VALID,356,VALID,0.934766,
2011-03-05, 00:33:05,VALID,916.901,VALID,0,VALID,91.4581,VALID,0,VALID,19.8003,VALID,356,VALID,0.941406,
2011-03-05, 00:34:05,VALID,916.853,VALID,0,VALID,91.5344,VALID,0,VALID,19.7598,VALID,356,VALID,0.896094,
2011-03-05, 00:35:05,VALID,916.87,VALID,0,VALID,91.6335,VALID,0,VALID,19.7598,VALID,356,VALID,0.854297,
2011-03-05, 00:36:05,VALID,916.839,VALID,0,VALID,91.4886,VALID,0,VALID,19.8003,VALID,356,VALID,0.679688,
2011-03-05, 00:37:05,VALID,916.84,VALID,0,VALID,91.4352,VALID,0,VALID,19.8198,VALID,356,VALID,0.525391,
2011-03-05, 00:38:05,VALID,916.808,VALID,0,VALID,91.6335,VALID,0,VALID,19.8198,VALID,356,VALID,0.459766,
2011-03-05, 00:39:05,VALID,916.797,VALID,0,VALID,91.8698,VALID,0.107441,VALID,19.8588,VALID,356,VALID,0.332422,
2011-03-05, 00:40:05,VALID,916.769,VALID,0,VALID,92.007,VALID,0,VALID,19.8573,VALID,356,VALID,0.015625,
2011-03-05, 00:41:05,VALID,916.735,VALID,0,VALID,91.8164,VALID,0,VALID,19.9173,VALID,356,VALID,0.00195313,
2011-03-05, 00:42:05,VALID,916.741,VALID,0,VALID,91.8317,VALID,0,VALID,19.9758,VALID,356,VALID,0.283594,
2011-03-05, 00:43:05,VALID,916.709,VALID,0,VALID,92.1214,VALID,0,VALID,19.9953,VALID,356,VALID,0.29375,
2011-03-05, 00:44:05,VALID,916.662,VALID,0,VALID,92.19,VALID,0,VALID,20.0148,VALID,356,VALID,0.178516,
2011-03-05, 00:45:05,VALID,916.607,VALID,0,VALID,92.2205,VALID,0,VALID,20.0343,VALID,356,VALID,0,
2011-03-05, 00:46:05,VALID,916.565,VALID,0,VALID,92.3196,VALID,0,VALID,20.0553,VALID,356,VALID,0,
2011-03-05, 00:47:05,VALID,916.552,VALID,0,VALID,92.068,VALID,0,VALID,20.0343,VALID,356,VALID,0,
2011-03-05, 00:48:05,VALID,916.571,VALID,0,VALID,91.824,VALID,0,VALID,20.0538,VALID,356,VALID,0.313281,
2011-03-05, 00:49:05,VALID,916.519,VALID,0,VALID,91.3209,VALID,0,VALID,20.0343,VALID,356,VALID,0.509375,
2011-03-05, 00:50:05,VALID,916.532,VALID,0,VALID,91.3819,VALID,0,VALID,19.9563,VALID,356,VALID,0.713672,
2011-03-05, 00:51:05,VALID,916.531,VALID,0,VALID,92.2967,VALID,0,VALID,19.9173,VALID,356,VALID,0.720312,
2011-03-05, 00:52:05,VALID,916.497,VALID,0,VALID,92.8303,VALID,0,VALID,19.8978,VALID,356,VALID,0.754687,
2011-03-05, 00:53:05,VALID,916.557,VALID,0,VALID,92.9447,VALID,0,VALID,19.8783,VALID,356,VALID,0.513672,
2011-03-05, 00:54:05,VALID,916.51,VALID,0,VALID,93.0514,VALID,0,VALID,19.8783,VALID,356,VALID,0.683984,
2011-03-05, 00:55:05,VALID,916.503,VALID,0,VALID,92.9676,VALID,0,VALID,19.8783,VALID,356,VALID,0.6875,
2011-03-05, 00:56:05,VALID,916.481,VALID,0,VALID,93.1581,VALID,0,VALID,19.9173,VALID,356,VALID,1.08359,
2011-03-05, 00:57:05,VALID,916.452,VALID,0,VALID,93.2801,VALID,0,VALID,19.8978,VALID,9,VALID,1.48281,
2011-03-05, 00:58:05,VALID,916.419,VALID,0,VALID,93.364,VALID,0,VALID,19.9173,VALID,9,VALID,1.21367,
2011-03-05, 00:59:05,VALID,916.419,VALID,0,VALID,93.5317,VALID,0,VALID,19.9173,VALID,9,VALID,0.88125,
2011-03-05, 01:00:05,VALID,916.418,VALID,0,VALID,93.6079,VALID,0,VALID,19.9368,VALID,9,VALID,0.535547,
2011-03-05, 01:01:05,VALID,916.435,VALID,0,VALID,93.5774,VALID,0,VALID,19.9368,VALID,9,VALID,0.570313,
2011-03-05, 01:02:05,VALID,916.412,VALID,0,VALID,93.5241,VALID,0,VALID,19.9773,VALID,9,VALID,0.344922,
2011-03-05, 01:03:05,VALID,916.434,VALID,0,VALID,93.5241,VALID,0,VALID,19.9563,VALID,9,VALID,0.660156,
2011-03-05, 01:04:05,VALID,916.462,VALID,0,VALID,93.5012,VALID,0,VALID,19.9563,VALID,9,VALID,0.754687,
2011-03-05, 01:05:05,VALID,916.487,VALID,0,VALID,93.4173,VALID,0,VALID,19.9968,VALID,9,VALID,0.654688,
2011-03-05, 01:06:05,VALID,916.511,VALID,0,VALID,93.3564,VALID,0,VALID,19.9953,VALID,9,VALID,0.710938,
2011-03-05, 01:07:05,VALID,916.501,VALID,0,VALID,93.3487,VALID,0,VALID,19.9953,VALID,9,VALID,0.413672,
2011-03-05, 01:08:05,VALID,916.487,VALID,0,VALID,93.3945,VALID,0,VALID,20.0148,VALID,9,VALID,0.728125,
2011-03-05, 01:09:05,VALID,916.522,VALID,0,VALID,93.5241,VALID,0,VALID,20.0538,VALID,9,VALID,0.374609,
2011-03-05, 01:10:05,VALID,916.519,VALID,0,VALID,93.5317,VALID,0,VALID,20.0928,VALID,9,VALID,0.135156,
2011-03-05, 01:11:05,VALID,916.545,VALID,0,VALID,93.5088,VALID,0,VALID,20.1123,VALID,9,VALID,0.298047,
2011-03-05, 01:12:05,VALID,916.509,VALID,0,VALID,93.4326,VALID,0,VALID,20.1513,VALID,9,VALID,0,
2011-03-05, 01:13:05,VALID,916.492,VALID,0,VALID,93.3106,VALID,0,VALID,20.1708,VALID,9,VALID,0,
2011-03-05, 01:14:05,VALID,916.512,VALID,0,VALID,93.1505,VALID,0,VALID,20.1513,VALID,9,VALID,0.2,
2011-03-05, 01:15:05,VALID,916.497,VALID,0,VALID,92.9904,VALID,0,VALID,20.1708,VALID,9,VALID,0.261719,
2011-03-05, 01:16:05,VALID,916.5,VALID,0,VALID,93.0362,VALID,0,VALID,20.1708,VALID,9,VALID,0.423438,
2011-03-05, 01:17:05,VALID,916.503,VALID,0,VALID,93.1963,VALID,0,VALID,20.2114,VALID,9,VALID,0.314453,
2011-03-05, 01:18:05,VALID,916.511,VALID,0,VALID,93.2191,VALID,0,VALID,20.2114,VALID,9,VALID,0.303906,
2011-03-05, 01:19:05,VALID,916.508,VALID,0,VALID,93.0972,VALID,0,VALID,20.2098,VALID,9,VALID,0,
2011-03-05, 01:20:05,VALID,916.509,VALID,0,VALID,93.0133,VALID,0,VALID,20.2293,VALID,9,VALID,0,
2011-03-05, 01:21:05,VALID,916.481,VALID,0,VALID,93.0133,VALID,0,VALID,20.2293,VALID,9,VALID,0.133984,
2011-03-05, 01:22:05,VALID,916.439,VALID,0,VALID,92.9752,VALID,0,VALID,20.2293,VALID,9,VALID,0,
2011-03-05, 01:23:05,VALID,916.42,VALID,0,VALID,92.9828,VALID,0,VALID,20.2083,VALID,9,VALID,0.191016,
2011-03-05, 01:24:05,VALID,916.409,VALID,0,VALID,93.0514,VALID,0,VALID,20.1888,VALID,9,VALID,0,
2011-03-05, 01:25:05,VALID,916.388,VALID,0,VALID,92.8989,VALID,0,VALID,20.2098,VALID,9,VALID,0.112891,
2011-03-05, 01:26:05,VALID,916.362,VALID,0,VALID,92.9066,VALID,0,VALID,20.1708,VALID,9,VALID,0.0949219,
2011-03-05, 01:27:05,VALID,916.358,VALID,0,VALID,92.9523,VALID,0,VALID,20.1513,VALID,9,VALID,0.1625,
2011-03-05, 01:28:05,VALID,916.349,VALID,0,VALID,93.2344,VALID,0,VALID,20.1318,VALID,9,VALID,0.213672,
2011-03-05, 01:29:05,VALID,916.328,VALID,0,VALID,93.5164,VALID,0,VALID,20.1108,VALID,9,VALID,0.248047,
2011-03-05, 01:30:05,VALID,916.378,VALID,0,VALID,93.7147,VALID,0,VALID,20.1318,VALID,9,VALID,0.223438,
2011-03-05, 01:31:05,VALID,916.398,VALID,0,VALID,94.0043,VALID,0,VALID,20.1513,VALID,9,VALID,0.609766,
2011-03-05, 01:32:05,VALID,916.405,VALID,0,VALID,93.9129,VALID,0,VALID,20.1318,VALID,9,VALID,0.577734,
2011-03-05, 01:33:05,VALID,916.437,VALID,0,VALID,94.0958,VALID,0,VALID,20.1513,VALID,9,VALID,0.824609,
2011-03-05, 01:34:05,VALID,916.442,VALID,0,VALID,94.1263,VALID,0,VALID,20.1919,VALID,9,VALID,0.634766,
2011-03-05, 01:35:05,VALID,916.451,VALID,0,VALID,93.8976,VALID,0,VALID,20.1708,VALID,9,VALID,0.286328,
2011-03-05, 01:36:05,VALID,916.467,VALID,0,VALID,93.8976,VALID,0,VALID,20.1708,VALID,9,VALID,0.386719,
2011-03-05, 01:37:05,VALID,916.452,VALID,0,VALID,93.9738,VALID,0,VALID,20.1708,VALID,9,VALID,0.511328,
2011-03-05, 01:38:05,VALID,916.484,VALID,0,VALID,93.7528,VALID,0,VALID,20.1903,VALID,346,VALID,0.441797,
2011-03-05, 01:39:05,VALID,916.435,VALID,0,VALID,93.6232,VALID,0,VALID,20.2098,VALID,346,VALID,0.714063,
2011-03-05, 01:40:05,VALID,916.461,VALID,0,VALID,93.6232,VALID,0,VALID,20.2098,VALID,346,VALID,0.435547,
2011-03-05, 01:41:05,VALID,916.414,VALID,0,VALID,93.6308,VALID,0,VALID,20.2293,VALID,5,VALID,1.41953,
2011-03-05, 01:42:05,VALID,916.407,VALID,0,VALID,93.6003,VALID,0,VALID,20.2293,VALID,5,VALID,1.14766,
2011-03-05, 01:43:05,VALID,916.399,VALID,0,VALID,93.4631,VALID,0,VALID,20.2098,VALID,5,VALID,0.927734,
2011-03-05, 01:44:05,VALID,916.379,VALID,0,VALID,93.364,VALID,0,VALID,20.1903,VALID,5,VALID,0.880469,
2011-03-05, 01:45:05,VALID,916.355,VALID,0,VALID,93.5546,VALID,0,VALID,20.1708,VALID,5,VALID,1.04766,
2011-03-05, 01:46:05,VALID,916.387,VALID,0,VALID,93.6384,VALID,0,VALID,20.1708,VALID,5,VALID,0.878125,
2011-03-05, 01:47:05,VALID,916.365,VALID,0,VALID,93.6155,VALID,0,VALID,20.1708,VALID,5,VALID,1.1418,
2011-03-05, 01:48:05,VALID,916.3,VALID,0,VALID,93.5164,VALID,0,VALID,20.1708,VALID,5,VALID,0.985937,
2011-03-05, 01:49:05,VALID,916.325,VALID,0,VALID,93.4707,VALID,0,VALID,20.1513,VALID,5,VALID,1.04922,
2011-03-05, 01:50:05,VALID,916.364,VALID,0,VALID,93.4859,VALID,0,VALID,20.1513,VALID,5,VALID,0.928906,
2011-03-05, 01:51:05,VALID,916.398,VALID,0,VALID,93.4783,VALID,0,VALID,20.1318,VALID,5,VALID,1.02383,
2011-03-05, 01:52:05,VALID,916.383,VALID,0,VALID,93.5622,VALID,0,VALID,20.1318,VALID,5,VALID,0.765625,
2011-03-05, 01:53:05,VALID,916.394,VALID,0,VALID,93.5546,VALID,0,VALID,20.1318,VALID,5,VALID,0.941016,
2011-03-05, 01:54:05,VALID,916.374,VALID,0,VALID,93.5774,VALID,0,VALID,20.0718,VALID,5,VALID,1.17305,
2011-03-05, 01:55:05,VALID,916.343,VALID,0,VALID,93.4173,VALID,0,VALID,20.0928,VALID,5,VALID,1.3918,
2011-03-05, 01:56:05,VALID,916.307,VALID,0,VALID,93.4707,VALID,0,VALID,20.0928,VALID,5,VALID,1.31445,
2011-03-05, 01:57:05,VALID,916.307,VALID,0,VALID,93.5393,VALID,0,VALID,20.1334,VALID,357,VALID,1.09297,
2011-03-05, 01:58:05,VALID,916.322,VALID,0,VALID,93.5622,VALID,0,VALID,20.0928,VALID,355,VALID,1.05547,
2011-03-05, 01:59:05,VALID,916.272,VALID,0,VALID,93.4783,VALID,0,VALID,20.1123,VALID,355,VALID,0.758594,
2011-03-05, 02:00:05,VALID,916.221,VALID,0,VALID,93.3945,VALID,0,VALID,20.1529,VALID,355,VALID,1.10898,
2011-03-05, 02:01:05,VALID,916.23,VALID,0,VALID,93.425,VALID,0,VALID,20.1498,VALID,355,VALID,0.94375,
2011-03-05, 02:02:05,VALID,916.229,VALID,0,VALID,93.3868,VALID,0,VALID,20.1513,VALID,355,VALID,1.04258,
2011-03-05, 02:03:05,VALID,916.262,VALID,0,VALID,93.3564,VALID,0,VALID,20.1693,VALID,355,VALID,0.471875,
2011-03-05, 02:04:05,VALID,916.27,VALID,0,VALID,93.3259,VALID,0,VALID,20.2098,VALID,355,VALID,0.445703,
2011-03-05, 02:05:05,VALID,916.243,VALID,0,VALID,93.425,VALID,0,VALID,20.2293,VALID,355,VALID,0.387891,
2011-03-05, 02:06:05,VALID,916.247,VALID,0,VALID,93.3792,VALID,0,VALID,20.2489,VALID,355,VALID,0.499609,
2011-03-05, 02:07:05,VALID,916.242,VALID,0,VALID,93.2801,VALID,0,VALID,20.2684,VALID,355,VALID,0.735156,
2011-03-05, 02:08:05,VALID,916.174,VALID,0,VALID,93.2877,VALID,0,VALID,20.2684,VALID,355,VALID,0.464453,
2011-03-05, 02:09:05,VALID,916.155,VALID,0,VALID,93.2496,VALID,0,VALID,20.2489,VALID,355,VALID,0.423828,
2011-03-05, 02:10:05,VALID,916.129,VALID,0,VALID,93.3792,VALID,0,VALID,20.2489,VALID,355,VALID,0.553516,
2011-03-05, 02:11:05,VALID,916.096,VALID,0,VALID,93.425,VALID,0,VALID,20.2684,VALID,355,VALID,0.235547,
2011-03-05, 02:12:05,VALID,916.059,VALID,0,VALID,93.4478,VALID,0,VALID,20.2684,VALID,355,VALID,0.217578,
2011-03-05, 02:13:05,VALID,916,VALID,0,VALID,93.425,VALID,0,VALID,20.2879,VALID,355,VALID,0.429297,
2011-03-05, 02:14:05,VALID,915.995,VALID,0,VALID,93.2115,VALID,0,VALID,20.3074,VALID,355,VALID,0.0503906,
2011-03-05, 02:15:05,VALID,916.024,VALID,0,VALID,92.9904,VALID,0,VALID,20.3074,VALID,355,VALID,0,
2011-03-05, 02:16:05,VALID,915.956,VALID,0,VALID,92.8608,VALID,0,VALID,20.3074,VALID,355,VALID,0.000390625,
2011-03-05, 02:17:04,VALID,915.939,VALID,0,VALID,93.0133,VALID,0,VALID,20.3074,VALID,355,VALID,0.218359,
2011-03-05, 02:18:04,VALID,915.923,VALID,0,VALID,93.1124,VALID,0,VALID,20.3284,VALID,355,VALID,0.468359,
2011-03-05, 02:19:04,VALID,915.951,VALID,0,VALID,92.7846,VALID,0,VALID,20.2879,VALID,355,VALID,0.379297,
2011-03-05, 02:20:04,VALID,915.942,VALID,0,VALID,92.7007,VALID,0,VALID,20.2684,VALID,355,VALID,0.472656,
2011-03-05, 02:21:04,VALID,915.918,VALID,0,VALID,93.059,VALID,0,VALID,20.2489,VALID,355,VALID,0.569141,
2011-03-05, 02:22:04,VALID,915.945,VALID,0,VALID,93.2268,VALID,0,VALID,20.2293,VALID,355,VALID,0.465234,
2011-03-05, 02:23:04,VALID,915.938,VALID,0,VALID,93.242,VALID,0,VALID,20.2098,VALID,355,VALID,0.272266,
2011-03-05, 02:24:04,VALID,915.925,VALID,0,VALID,93.3182,VALID,0,VALID,20.2098,VALID,355,VALID,0.221484,
2011-03-05, 02:25:04,VALID,915.95,VALID,0,VALID,93.4859,VALID,0,VALID,20.2098,VALID,355,VALID,0.601953,
2011-03-05, 02:26:04,VALID,915.941,VALID,0,VALID,93.6613,VALID,0,VALID,20.2293,VALID,355,VALID,0.301172,
2011-03-05, 02:27:04,VALID,915.93,VALID,0,VALID,93.6308,VALID,0,VALID,20.2489,VALID,355,VALID,0.397656,
2011-03-05, 02:28:04,VALID,915.946,VALID,0,VALID,93.3792,VALID,0,VALID,20.2894,VALID,355,VALID,0.311328,
2011-03-05, 02:29:04,VALID,915.945,VALID,0,VALID,93.2191,VALID,0,VALID,20.3058,VALID,355,VALID,0.0121094,
2011-03-05, 02:30:04,VALID,915.965,VALID,0,VALID,93.0895,VALID,0,VALID,20.3074,VALID,355,VALID,0,
2011-03-05, 02:31:04,VALID,915.969,VALID,0,VALID,93.0057,VALID,0,VALID,20.3464,VALID,355,VALID,0.425781,
2011-03-05, 02:32:04,VALID,915.957,VALID,0,VALID,92.9599,VALID,0,VALID,20.3269,VALID,355,VALID,0.104297,
2011-03-05, 02:33:04,VALID,915.974,VALID,0,VALID,92.8761,VALID,0,VALID,20.3074,VALID,355,VALID,0.419922,
2011-03-05, 02:34:04,VALID,915.963,VALID,0,VALID,92.9218,VALID,0,VALID,20.3269,VALID,355,VALID,0.339453,
2011-03-05, 02:35:04,VALID,915.964,VALID,0,VALID,92.777,VALID,0,VALID,20.3074,VALID,355,VALID,0,
2011-03-05, 02:36:04,VALID,915.964,VALID,0,VALID,92.7389,VALID,0,VALID,20.2879,VALID,355,VALID,0.238281,
2011-03-05, 02:37:04,VALID,915.997,VALID,0,VALID,92.8608,VALID,0,VALID,20.2489,VALID,355,VALID,0.535937,
2011-03-05, 02:38:04,VALID,915.983,VALID,0,VALID,93.3411,VALID,0,VALID,20.2293,VALID,355,VALID,0.589063,
2011-03-05, 02:39:04,VALID,916.001,VALID,0,VALID,93.5774,VALID,0,VALID,20.2293,VALID,355,VALID,0.516406,
2011-03-05, 02:40:04,VALID,915.987,VALID,0,VALID,93.646,VALID,0,VALID,20.2489,VALID,355,VALID,0.185547,
2011-03-05, 02:41:04,VALID,915.996,VALID,0,VALID,93.5469,VALID,0,VALID,20.2684,VALID,355,VALID,0,
2011-03-05, 02:42:04,VALID,915.94,VALID,0,VALID,93.4555,VALID,0,VALID,20.2684,VALID,355,VALID,0,
2011-03-05, 02:43:04,VALID,915.941,VALID,0,VALID,93.242,VALID,0,VALID,20.2489,VALID,355,VALID,0.00195313,
2011-03-05, 02:44:04,VALID,915.953,VALID,0,VALID,93.1353,VALID,0,VALID,20.2293,VALID,355,VALID,0.147266,
2011-03-05, 02:45:04,VALID,915.934,VALID,0,VALID,93.5012,VALID,0,VALID,20.2098,VALID,355,VALID,0.415234,
2011-03-05, 02:46:04,VALID,915.951,VALID,0,VALID,93.6384,VALID,0,VALID,20.1708,VALID,355,VALID,0.742188,
2011-03-05, 02:47:04,VALID,915.931,VALID,0,VALID,93.707,VALID,0,VALID,20.1724,VALID,355,VALID,0.782812,
2011-03-05, 02:48:04,VALID,915.893,VALID,0,VALID,94.0425,VALID,0,VALID,20.1708,VALID,355,VALID,0.674219,
2011-03-05, 02:49:04,VALID,915.918,VALID,0,VALID,94.1111,VALID,0,VALID,20.1513,VALID,355,VALID,0.66875,
2011-03-05, 02:50:04,VALID,915.902,VALID,0,VALID,94.3398,VALID,0,VALID,20.1708,VALID,355,VALID,0.548047,
2011-03-05, 02:51:04,VALID,915.865,VALID,0,VALID,94.3321,VALID,0,VALID,20.1903,VALID,355,VALID,0.467187,
2011-03-05, 02:52:04,VALID,915.876,VALID,0,VALID,94.3779,VALID,0,VALID,20.1498,VALID,355,VALID,0.442969,
2011-03-05, 02:53:04,VALID,915.829,VALID,0,VALID,94.4236,VALID,0,VALID,20.1903,VALID,355,VALID,0.275781,
2011-03-05, 02:54:04,VALID,915.833,VALID,0,VALID,94.5304,VALID,0,VALID,20.2098,VALID,355,VALID,0.245312,
2011-03-05, 02:55:04,VALID,915.811,VALID,0,VALID,94.5913,VALID,0,VALID,20.2293,VALID,355,VALID,0,
2011-03-05, 02:56:04,VALID,915.812,VALID,0,VALID,94.538,VALID,0,VALID,20.2293,VALID,355,VALID,0,
2011-03-05, 02:57:04,VALID,915.818,VALID,0,VALID,94.3779,VALID,0,VALID,20.2293,VALID,355,VALID,0,
2011-03-05, 02:58:04,VALID,915.77,VALID,0,VALID,94.1568,VALID,0,VALID,20.2504,VALID,355,VALID,0,
2011-03-05, 02:59:04,VALID,915.778,VALID,0,VALID,93.8824,VALID,0,VALID,20.2098,VALID,355,VALID,0.516406,
2011-03-05, 03:00:04,VALID,915.738,VALID,0,VALID,93.7375,VALID,0,VALID,20.1708,VALID,355,VALID,0.53125,
2011-03-05, 03:01:04,VALID,915.741,VALID,0,VALID,93.6079,VALID,0,VALID,20.0913,VALID,355,VALID,0.707812,
2011-03-05, 03:02:04,VALID,915.697,VALID,0,VALID,93.5546,VALID,0,VALID,20.0733,VALID,355,VALID,0.622656,
2011-03-05, 03:03:04,VALID,915.711,VALID,0,VALID,93.6079,VALID,0,VALID,20.0148,VALID,355,VALID,0.521484,
2011-03-05, 03:04:04,VALID,915.659,VALID,0,VALID,93.7375,VALID,0,VALID,19.9758,VALID,355,VALID,0.697266,
2011-03-05, 03:05:04,VALID,915.669,VALID,0,VALID,93.8976,VALID,0,VALID,19.9368,VALID,355,VALID,0.390625,
2011-03-05, 03:06:04,VALID,915.669,VALID,0,VALID,94.1111,VALID,0,VALID,19.8978,VALID,355,VALID,0.361328,
2011-03-05, 03:07:04,VALID,915.652,VALID,0,VALID,94.2864,VALID,0,VALID,19.9173,VALID,355,VALID,0,
2011-03-05, 03:08:04,VALID,915.644,VALID,0,VALID,94.4465,VALID,0,VALID,19.9173,VALID,355,VALID,0,
2011-03-05, 03:09:04,VALID,915.625,VALID,0,VALID,94.5837,VALID,0,VALID,19.9158,VALID,355,VALID,0,
2011-03-05, 03:10:04,VALID,915.633,VALID,0,VALID,94.5532,VALID,0,VALID,19.9158,VALID,355,VALID,0,
2011-03-05, 03:11:04,VALID,915.646,VALID,0,VALID,94.294,VALID,0,VALID,19.8978,VALID,355,VALID,0,
2011-03-05, 03:12:04,VALID,915.641,VALID,0,VALID,94.2407,VALID,0,VALID,19.9173,VALID,355,VALID,0,
2011-03-05, 03:13:04,VALID,915.626,VALID,0,VALID,94.2407,VALID,0,VALID,19.8978,VALID,355,VALID,0,
2011-03-05, 03:14:04,VALID,915.633,VALID,0,VALID,94.3169,VALID,0,VALID,19.9173,VALID,355,VALID,0,
2011-03-05, 03:15:04,VALID,915.65,VALID,0,VALID,94.4008,VALID,0,VALID,19.9368,VALID,355,VALID,0,
2011-03-05, 03:16:04,VALID,915.668,VALID,0,VALID,94.4541,VALID,0,VALID,19.9563,VALID,355,VALID,0,
2011-03-05, 03:17:04,VALID,915.688,VALID,0,VALID,94.5227,VALID,0,VALID,19.9953,VALID,355,VALID,0,
2011-03-05, 03:18:04,VALID,915.721,VALID,0,VALID,94.3626,VALID,0,VALID,19.9953,VALID,355,VALID,0,
2011-03-05, 03:19:04,VALID,915.703,VALID,0,VALID,94.3931,VALID,0,VALID,20.0148,VALID,355,VALID,0,
2011-03-05, 03:20:04,VALID,915.704,VALID,0,VALID,94.4389,VALID,0,VALID,20.0343,VALID,355,VALID,0,
2011-03-05, 03:21:04,VALID,915.687,VALID,0,VALID,94.2788,VALID,0,VALID,20.0343,VALID,355,VALID,0,
2011-03-05, 03:22:04,VALID,915.645,VALID,0,VALID,94.2102,VALID,0,VALID,20.0538,VALID,355,VALID,0,
2011-03-05, 03:23:04,VALID,915.652,VALID,0,VALID,94.1568,VALID,0,VALID,20.0328,VALID,355,VALID,0.337891,
2011-03-05, 03:24:04,VALID,915.607,VALID,0,VALID,94.012,VALID,0,VALID,20.0538,VALID,355,VALID,0.241797,
2011-03-05, 03:25:04,VALID,915.621,VALID,0,VALID,94.0043,VALID,0,VALID,20.0538,VALID,355,VALID,0.626953,
2011-03-05, 03:26:04,VALID,915.584,VALID,0,VALID,94.012,VALID,0,VALID,20.0538,VALID,355,VALID,0.872656,
2011-03-05, 03:27:04,VALID,915.522,VALID,0,VALID,93.8671,VALID,0,VALID,20.0148,VALID,355,VALID,0.93125,
2011-03-05, 03:28:04,VALID,915.515,VALID,0,VALID,94.0272,VALID,0,VALID,19.9953,VALID,355,VALID,1.10391,
2011-03-05, 03:29:04,VALID,915.494,VALID,0,VALID,93.9891,VALID,0,VALID,19.9758,VALID,355,VALID,1.05898,
2011-03-05, 03:30:04,VALID,915.493,VALID,0,VALID,94.073,VALID,0,VALID,19.9173,VALID,355,VALID,1.16328,
2011-03-05, 03:31:04,VALID,915.519,VALID,0,VALID,94.2712,VALID,0,VALID,19.8588,VALID,355,VALID,0.615234,
2011-03-05, 03:32:04,VALID,915.451,VALID,0,VALID,94.4617,VALID,0,VALID,19.8198,VALID,355,VALID,0.561328,
2011-03-05, 03:33:04,VALID,915.447,VALID,0,VALID,94.66,VALID,0,VALID,19.8003,VALID,355,VALID,0.422656,
2011-03-05, 03:34:04,VALID,915.427,VALID,0,VALID,94.7438,VALID,0,VALID,19.7808,VALID,355,VALID,0.435156,
2011-03-05, 03:35:04,VALID,915.455,VALID,0,VALID,94.8429,VALID,0,VALID,19.7613,VALID,355,VALID,0.521484,
2011-03-05, 03:36:04,VALID,915.413,VALID,0,VALID,94.9573,VALID,0,VALID,19.7613,VALID,355,VALID,0.413672,
2011-03-05, 03:37:04,VALID,915.417,VALID,0,VALID,95.0259,VALID,0,VALID,19.7613,VALID,355,VALID,0.205859,
2011-03-05, 03:38:04,VALID,915.431,VALID,0,VALID,95.1097,VALID,0,VALID,19.7403,VALID,355,VALID,0,
2011-03-05, 03:39:04,VALID,915.43,VALID,0,VALID,95.1479,VALID,0,VALID,19.7808,VALID,355,VALID,0.00507812,
2011-03-05, 03:40:04,VALID,915.414,VALID,0,VALID,95.0106,VALID,0,VALID,19.7418,VALID,355,VALID,0.203906,
2011-03-05, 03:41:04,VALID,915.42,VALID,0,VALID,94.9649,VALID,0,VALID,19.7013,VALID,355,VALID,0.15,
2011-03-05, 03:42:04,VALID,915.457,VALID,0,VALID,95.0106,VALID,0,VALID,19.7013,VALID,355,VALID,0,
2011-03-05, 03:43:04,VALID,915.46,VALID,0,VALID,95.0945,VALID,0,VALID,19.7613,VALID,355,VALID,0,
2011-03-05, 03:44:04,VALID,915.48,VALID,0,VALID,95.1783,VALID,0,VALID,19.7418,VALID,355,VALID,0,
2011-03-05, 03:45:04,VALID,915.438,VALID,0,VALID,95.2012,VALID,0,VALID,19.7418,VALID,355,VALID,0,
2011-03-05, 03:46:04,VALID,915.468,VALID,0,VALID,95.0564,VALID,0,VALID,19.7223,VALID,355,VALID,0,
2011-03-05, 03:47:04,VALID,915.462,VALID,0,VALID,95.0564,VALID,0,VALID,19.7223,VALID,355,VALID,0,
2011-03-05, 03:48:04,VALID,915.495,VALID,0,VALID,94.942,VALID,0,VALID,19.7028,VALID,355,VALID,0,